CZ-6A DEB, 54293

Orbit data source: Space-Track

CZ-6A DEB, 54293 is space debris in SSO originally from a launch on Fri, 11 Nov 2022 UTC launched from the Taiyaun Space Center, China (TSC). Debris objects in space refer to the collection of defunct objects orbiting the Earth. Examples of debris include non-operational satellites, rocket bodies, and fragments generated from explosions, collisions, or faulty payload assembly.

Loading next visibility...
Identifier
54293, 2022-151AL
Orbit
SSO
Country
Flag of CNCN / PRC
Related business
Manufacturer
SAST
Mission
Spacecraft
Bus & Motor
Unknown
Mass
Unknown
Launch date (UTC)
2022-11-11 (4 years ago)
Launch vehicle
Unknown
Launch site
Taiyaun Space Center, China (TSC)
Object type
Payload
Rocket body
Debris
Shape & HBR
Unknown shape, 0.2 m
Radar Cross Section
Medium (>0.1 m² and <1 m²)

Expand to show TLE details & history
Last TLE update: 16 hours ago

TLE from 16 hours ago
0 CZ-6A DEB
1 54293U 22151AL  26235.82482266  .00000312  00000-0  15327-3 0  9997
2 54293  98.7534 260.4777 0038707 292.7216  66.9874 14.24336169195855
Epoch: 2026-08-23T19:47Z
TLE epoch observation values (Epoch: 2026-08-23T19:47:44.677Z)
Latitude
-0°
Longitude
-8.57378°
Altitude
802.856 km
Speed
7.458 km/s
True Right ascension
17h 21m 54s
True Declination
0° 00' 00"
Sunlit
Object was in daylight at epoch
Visualization orbit readout
Latitude
Unknown
Longitude
Unknown
Altitude
Unknown
Speed
Unknown
Apparent Right ascension
Unknown
Apparent Declination
Unknown
Sunlit
N/A
Visualization observer readout
Local Sidereal Time
02:50:14
Azimuth
Unknown
Elevation
Unknown
Doppler factor
Unknown
Orbital elements
Apogee altitude
835.695 km
Perigee altitude
780.065 km
Semi-major axis
7,186.017 km
Eccentricity
0.00387
Inclination
98.7534°
RAAN
260.4777°
Arg. of periapsis
292.7216°
True anomaly
67.39642°
Mean anomaly
66.9874°
Eccentric anomaly
67.19183°
Mean motion
3.56296 °/min
Orbital period
101.04 mins
BSTAR
0.00015327
Loading maneuver chart data...
Computing Atmospheric mass density...
Loading historical data...
Loading historical data...
Loading historical data...
Loading historical data...
Loading historical data...
Loading historical data...
Loading historical data...

Documentation

Showing up to 5 results
|